• In Hungary
  • List of Countries
  • For 7 days
  • Water Temperature
  • Satellite Maps
  • Weather Map
  • News
  • Weather Widgets
  • user-avatar
    Login

    Hourly Weather Koprivshtitsa

    Today, 23 November, Thursday

    Time Temperature Precipitation Wind Pressure Humidity
    00:00 +2°C° 0 mm 2 mps 659 mmHg 67%
    01:00 +1°C° 0 mm 2 mps 659 mmHg 67%
    02:00 +1°C° 0 mm 2 mps 659 mmHg 67%
    03:00 +1°C° 0 mm 2 mps 659 mmHg 67%
    04:00 +1°C° 0 mm 2 mps 659 mmHg 67%
    05:00 +1°C° 0 mm 2 mps 659 mmHg 67%
    06:00 +1°C° 0 mm 2 mps 659 mmHg 68%
    07:00 +1°C° 0 mm 2 mps 659 mmHg 68%
    08:00 +2°C° 0 mm 2 mps 660 mmHg 69%
    09:00 +3°C° 0 mm 2 mps 660 mmHg 64%
    10:00 +6°C° 0 mm 1 mps 661 mmHg 59%
    11:00 +8°C° 0 mm 1 mps 662 mmHg 54%
    12:00 +9°C° 0 mm 1 mps 662 mmHg 53%
    13:00 +9°C° 0 mm 1 mps 662 mmHg 51%
    14:00 +10°C° 0 mm 1 mps 662 mmHg 51%
    15:00 +8°C° 0 mm 1 mps 661 mmHg 57%
    16:00 +7°C° 0 mm 1 mps 661 mmHg 62%
    17:00 +4°C° 0 mm 0 mps 660 mmHg 68%
    18:00 +5°C° 0 mm 1 mps 660 mmHg 69%
    19:00 +4°C° 0 mm 1 mps 661 mmHg 70%
    20:00 +4°C° 0 mm 1 mps 661 mmHg 71%
    21:00 +4°C° 0 mm 1 mps 661 mmHg 71%
    22:00 +3°C° 0 mm 1 mps 661 mmHg 71%
    23:00 +3°C° 0 mm 1 mps 661 mmHg 71%

    Tomorrow, 24 November, Friday

    Time Temperature Precipitation Wind Pressure Humidity
    00:00 +3°C° 0 mm 1 mps 661 mmHg 71%
    01:00 +3°C° 0 mm 1 mps 661 mmHg 71%
    02:00 +3°C° 0 mm 1 mps 661 mmHg 70%
    03:00 +2°C° 0 mm 1 mps 660 mmHg 70%
    04:00 +2°C° 0 mm 1 mps 660 mmHg 70%
    05:00 +2°C° 0 mm 1 mps 660 mmHg 69%
    06:00 +2°C° 0 mm 1 mps 660 mmHg 69%
    07:00 +2°C° 0 mm 1 mps 660 mmHg 68%
    08:00 +2°C° 0 mm 1 mps 660 mmHg 68%
    09:00 +4°C° 0 mm 1 mps 661 mmHg 62%
    10:00 +6°C° 0 mm 1 mps 662 mmHg 56%
    11:00 +7°C° 0 mm 0 mps 662 mmHg 50%
    12:00 +8°C° 0 mm 0 mps 662 mmHg 49%
    13:00 +9°C° 0 mm 1 mps 662 mmHg 48%
    14:00 +10°C° 0 mm 1 mps 662 mmHg 47%
    15:00 +8°C° 0 mm 1 mps 662 mmHg 54%
    16:00 +6°C° 0 mm 1 mps 661 mmHg 61%
    17:00 +4°C° 0 mm 0 mps 661 mmHg 68%
    18:00 +4°C° 0 mm 1 mps 661 mmHg 70%
    19:00 +4°C° 0 mm 1 mps 661 mmHg 71%
    20:00 +3°C° 0 mm 1 mps 661 mmHg 73%
    21:00 +3°C° 0 mm 1 mps 661 mmHg 74%
    22:00 +3°C° 0 mm 1 mps 661 mmHg 75%
    23:00 +2°C° 0 mm 1 mps 661 mmHg 75%

    Day after tomorrow, 25 November, Saturday

    Time Temperature Precipitation Wind Pressure Humidity
    00:00 +2°C° 0 mm 1 mps 661 mmHg 76%
    01:00 +2°C° 0 mm 1 mps 661 mmHg 76%
    02:00 +2°C° 0 mm 1 mps 661 mmHg 77%
    03:00 +2°C° 0 mm 1 mps 661 mmHg 77%
    04:00 +1°C° 0 mm 1 mps 661 mmHg 78%
    05:00 +1°C° 0 mm 1 mps 661 mmHg 78%
    06:00 +1°C° 0 mm 1 mps 661 mmHg 78%
    07:00 +1°C° 0 mm 1 mps 661 mmHg 79%
    08:00 +1°C° 0 mm 1 mps 661 mmHg 79%
    09:00 +3°C° 0 mm 1 mps 661 mmHg 74%
    10:00 +5°C° 0 mm 1 mps 662 mmHg 68%
    11:00 +6°C° 0 mm 1 mps 662 mmHg 63%
    12:00 +7°C° 0 mm 1 mps 662 mmHg 62%
    13:00 +7°C° 0 mm 1 mps 661 mmHg 61%
    14:00 +8°C° 0 mm 1 mps 661 mmHg 61%
    15:00 +6°C° 0 mm 1 mps 661 mmHg 68%
    16:00 +5°C° 0 mm 1 mps 660 mmHg 76%
    17:00 +4°C° 0 mm 1 mps 659 mmHg 84%
    18:00 +3°C° 0 mm 1 mps 659 mmHg 85%
    19:00 +3°C° 0 mm 1 mps 659 mmHg 87%
    20:00 +2°C° 0 mm 1 mps 659 mmHg 89%
    21:00 +2°C° 0 mm 1 mps 659 mmHg 89%
    22:00 +2°C° 0 mm 1 mps 659 mmHg 89%
    23:00 +2°C° 0 mm 1 mps 659 mmHg 89%

    26 November, Sunday

    Time Temperature Precipitation Wind Pressure Humidity
    00:00 +2°C° 0 mm 1 mps 659 mmHg 90%
    01:00 +2°C° 0 mm 1 mps 659 mmHg 90%
    02:00 +1°C° 0 mm 1 mps 658 mmHg 90%
    03:00 +1°C° 0 mm 1 mps 658 mmHg 90%
    04:00 +1°C° 0 mm 1 mps 658 mmHg 90%
    05:00 +1°C° 0 mm 1 mps 658 mmHg 89%
    06:00 +1°C° 0 mm 1 mps 658 mmHg 88%
    07:00 +1°C° 0 mm 1 mps 658 mmHg 86%
    08:00 +1°C° 0 mm 1 mps 658 mmHg 84%
    09:00 +3°C° 0 mm 1 mps 658 mmHg 76%
    10:00 +5°C° 0 mm 1 mps 659 mmHg 68%
    11:00 +7°C° 0 mm 1 mps 659 mmHg 60%
    12:00 +8°C° 0 mm 1 mps 659 mmHg 57%
    13:00 +8°C° 0 mm 1 mps 659 mmHg 55%
    14:00 +9°C° 0 mm 1 mps 658 mmHg 52%
    15:00 +8°C° 0 mm 1 mps 658 mmHg 58%
    16:00 +6°C° 0 mm 1 mps 657 mmHg 64%
    17:00 +5°C° 0 mm 1 mps 657 mmHg 70%
    18:00 +5°C° 0 mm 1 mps 657 mmHg 72%
    19:00 +5°C° 0 mm 1 mps 657 mmHg 73%
    20:00 +4°C° 0 mm 1 mps 656 mmHg 74%
    21:00 +4°C° 0 mm 1 mps 656 mmHg 75%
    22:00 +4°C° 0 mm 1 mps 656 mmHg 76%
    23:00 +4°C° 0 mm 1 mps 656 mmHg 76%

    27 November, Monday

    Time Temperature Precipitation Wind Pressure Humidity
    00:00 +4°C° 0.1 mm 1 mps 656 mmHg 78%
    01:00 +4°C° 0.1 mm 1 mps 656 mmHg 79%
    02:00 +3°C° 0.1 mm 1 mps 655 mmHg 81%
    03:00 +3°C° 0.1 mm 1 mps 655 mmHg 83%
    04:00 +3°C° 0.1 mm 1 mps 655 mmHg 85%
    05:00 +2°C° 0.1 mm 1 mps 655 mmHg 87%
    06:00 +2°C° 0.2 mm 1 mps 655 mmHg 88%
    07:00 +2°C° 0.2 mm 1 mps 655 mmHg 89%
    08:00 +2°C° 0.2 mm 1 mps 655 mmHg 90%
    09:00 +3°C° 0.6 mm 1 mps 656 mmHg 89%
    10:00 +3°C° 0.6 mm 1 mps 656 mmHg 88%
    11:00 +3°C° 0.6 mm 1 mps 656 mmHg 86%
    12:00 +2°C° 0.8 mm 2 mps 656 mmHg 86%
    13:00 +2°C° 0.8 mm 2 mps 655 mmHg 85%
    14:00 +1°C° 0.8 mm 3 mps 655 mmHg 85%
    15:00 0°C° 1 mm 3 mps 655 mmHg 85%
    16:00 0°C° 1 mm 3 mps 655 mmHg 85%
    17:00 -1°C° 1 mm 3 mps 655 mmHg 85%
    18:00 -2°C° 1.9 mm 3 mps 655 mmHg 86%
    19:00 -2°C° 1.9 mm 3 mps 655 mmHg 87%
    20:00 -4°C° 1.9 mm 3 mps 655 mmHg 88%
    21:00 -4°C° 1.6 mm 3 mps 655 mmHg 89%
    22:00 -4°C° 1.6 mm 3 mps 655 mmHg 90%
    23:00 -4°C° 1.6 mm 3 mps 655 mmHg 90%

    28 November, Tuesday

    Time Temperature Precipitation Wind Pressure Humidity
    00:00 -5°C° 1.4 mm 3 mps 655 mmHg 91%
    01:00 -5°C° 1.4 mm 3 mps 655 mmHg 91%
    02:00 -5°C° 1.4 mm 3 mps 655 mmHg 91%
    03:00 -5°C° 1.2 mm 3 mps 654 mmHg 92%
    04:00 -5°C° 1.2 mm 3 mps 654 mmHg 92%
    05:00 -5°C° 1.2 mm 3 mps 654 mmHg 92%
    06:00 -5°C° 0.9 mm 3 mps 655 mmHg 92%
    07:00 -5°C° 0.9 mm 3 mps 655 mmHg 92%
    08:00 -5°C° 0.9 mm 3 mps 655 mmHg 92%
    09:00 -5°C° 0.4 mm 3 mps 655 mmHg 92%
    10:00 -4°C° 0.4 mm 2 mps 656 mmHg 92%
    11:00 -4°C° 0.4 mm 2 mps 656 mmHg 92%
    12:00 -4°C° 0.4 mm 2 mps 656 mmHg 92%
    13:00 -3°C° 0.4 mm 2 mps 656 mmHg 91%
    14:00 -3°C° 0.4 mm 2 mps 655 mmHg 91%
    15:00 -4°C° 0.5 mm 2 mps 655 mmHg 91%
    16:00 -4°C° 0.5 mm 2 mps 656 mmHg 91%
    17:00 -4°C° 0.5 mm 2 mps 656 mmHg 91%
    18:00 -4°C° 0.4 mm 2 mps 656 mmHg 91%
    19:00 -4°C° 0.4 mm 2 mps 656 mmHg 91%
    20:00 -4°C° 0.4 mm 2 mps 656 mmHg 91%
    21:00 -4°C° 0.2 mm 2 mps 656 mmHg 91%
    22:00 -4°C° 0.2 mm 2 mps 657 mmHg 91%
    23:00 -2°C° 0.2 mm 1 mps 657 mmHg 91%
    Show more